Data_ora(solare);Livello P. Salute Canal Grande (m);;;;;;;;;
01/01/2021 01:00;0.68;;;;;;;;;
01/01/2021 02:00;0.67;;;;;;;;;
01/01/2021 03:00;0.57;;;;;;;;;
01/01/2021 04:00;0.48;;;;;;;;;
01/01/2021 05:00;0.45;;;;;;;;;
01/01/2021 06:00;0.49;;;;;;;;;
01/01/2021 07:00;0.53;;;;;;;;;
01/01/2021 08:00;0.6;;;;;;;;;
01/01/2021 09:00;0.68;;;;;;;;;
01/01/2021 10:00;0.77;;;;;;;;;
01/01/2021 11:00;0.83;;;;;;;;;
01/01/2021 12:00;0.85;;;;;;;;;
01/01/2021 13:00;0.75;;;;;;;;;
01/01/2021 14:00;0.55;;;;;;;;;
01/01/2021 15:00;0.34;;;;;;;;;
01/01/2021 16:00;0.15;;;;;;;;;
01/01/2021 17:00;0.01;;;;;;;;;
01/01/2021 18:00;-0.09;;;;;;;;;
01/01/2021 19:00;-0.07;;;;;;;;;
01/01/2021 20:00;0.07;;;;;;;;;
01/01/2021 21:00;0.26;;;;;;;;;
01/01/2021 22:00;0.45;;;;;;;;;
01/01/2021 23:00;0.62;;;;;;;;;
02/01/2021 00:00;0.75;;;;;;;;;
02/01/2021 01:00;0.83;;;;;;;;;
02/01/2021 02:00;0.84;;;;;;;;;
02/01/2021 03:00;0.78;;;;;;;;;
02/01/2021 04:00;0.7;;;;;;;;;
02/01/2021 05:00;0.6;;;;;;;;;
02/01/2021 06:00;0.58;;;;;;;;;
02/01/2021 07:00;0.58;;;;;;;;;
02/01/2021 08:00;0.59;;;;;;;;;
02/01/2021 09:00;0.64;;;;;;;;;
02/01/2021 10:00;0.68;;;;;;;;;
02/01/2021 11:00;0.66;;;;;;;;;
02/01/2021 12:00;0.66;;;;;;;;;
02/01/2021 13:00;0.7;;;;;;;;;
02/01/2021 14:00;0.72;;;;;;;;;
02/01/2021 15:00;0.69;;;;;;;;;
02/01/2021 16:00;0.55;;;;;;;;;
02/01/2021 17:00;0.41;;;;;;;;;
02/01/2021 18:00;0.28;;;;;;;;;
02/01/2021 19:00;0.21;;;;;;;;;
02/01/2021 20:00;0.25;;;;;;;;;
02/01/2021 21:00;0.37;;;;;;;;;
02/01/2021 22:00;0.54;;;;;;;;;
02/01/2021 23:00;0.69;;;;;;;;;
03/01/2021 00:00;0.81;;;;;;;;;
03/01/2021 01:00;0.89;;;;;;;;;
03/01/2021 02:00;0.88;;;;;;;;;
03/01/2021 03:00;0.82;;;;;;;;;
03/01/2021 04:00;0.69;;;;;;;;;
03/01/2021 05:00;0.56;;;;;;;;;
03/01/2021 06:00;0.44;;;;;;;;;
03/01/2021 07:00;0.4;;;;;;;;;
03/01/2021 08:00;0.43;;;;;;;;;
03/01/2021 09:00;0.5;;;;;;;;;
03/01/2021 10:00;0.64;;;;;;;;;
03/01/2021 11:00;0.76;;;;;;;;;
03/01/2021 12:00;0.83;;;;;;;;;
03/01/2021 13:00;0.85;;;;;;;;;
03/01/2021 14:00;0.81;;;;;;;;;
03/01/2021 15:00;0.68;;;;;;;;;
03/01/2021 16:00;0.52;;;;;;;;;
03/01/2021 17:00;0.37;;;;;;;;;
03/01/2021 18:00;0.25;;;;;;;;;
03/01/2021 19:00;0.15;;;;;;;;;
03/01/2021 20:00;0.1;;;;;;;;;
03/01/2021 21:00;0.14;;;;;;;;;
03/01/2021 22:00;0.28;;;;;;;;;
03/01/2021 23:00;0.42;;;;;;;;;
04/01/2021 00:00;0.56;;;;;;;;;
04/01/2021 01:00;0.67;;;;;;;;;
04/01/2021 02:00;0.74;;;;;;;;;
04/01/2021 03:00;0.74;;;;;;;;;
04/01/2021 04:00;0.65;;;;;;;;;
04/01/2021 05:00;0.53;;;;;;;;;
04/01/2021 06:00;0.44;;;;;;;;;
04/01/2021 07:00;0.37;;;;;;;;;
04/01/2021 08:00;0.38;;;;;;;;;
04/01/2021 09:00;0.44;;;;;;;;;
04/01/2021 10:00;0.54;;;;;;;;;
04/01/2021 11:00;0.65;;;;;;;;;
04/01/2021 12:00;0.73;;;;;;;;;
04/01/2021 13:00;0.76;;;;;;;;;
04/01/2021 14:00;0.73;;;;;;;;;
04/01/2021 15:00;0.64;;;;;;;;;
04/01/2021 16:00;0.51;;;;;;;;;
04/01/2021 17:00;0.38;;;;;;;;;
04/01/2021 18:00;0.24;;;;;;;;;
04/01/2021 19:00;0.13;;;;;;;;;
04/01/2021 20:00;0.06;;;;;;;;;
04/01/2021 21:00;0.06;;;;;;;;;
04/01/2021 22:00;0.15;;;;;;;;;
04/01/2021 23:00;0.29;;;;;;;;;
05/01/2021 00:00;0.44;;;;;;;;;
05/01/2021 01:00;0.56;;;;;;;;;
05/01/2021 02:00;0.66;;;;;;;;;
05/01/2021 03:00;0.72;;;;;;;;;
05/01/2021 04:00;0.74;;;;;;;;;
05/01/2021 05:00;0.7;;;;;;;;;
05/01/2021 06:00;0.62;;;;;;;;;
05/01/2021 07:00;0.55;;;;;;;;;
05/01/2021 08:00;0.49;;;;;;;;;
05/01/2021 09:00;0.45;;;;;;;;;
05/01/2021 10:00;0.49;;;;;;;;;
05/01/2021 11:00;0.56;;;;;;;;;
05/01/2021 12:00;0.64;;;;;;;;;
05/01/2021 13:00;0.71;;;;;;;;;
05/01/2021 14:00;0.75;;;;;;;;;
05/01/2021 15:00;0.74;;;;;;;;;
05/01/2021 16:00;0.66;;;;;;;;;
05/01/2021 17:00;0.56;;;;;;;;;
05/01/2021 18:00;0.44;;;;;;;;;
05/01/2021 19:00;0.32;;;;;;;;;
05/01/2021 20:00;0.25;;;;;;;;;
05/01/2021 21:00;0.22;;;;;;;;;
05/01/2021 22:00;0.27;;;;;;;;;
05/01/2021 23:00;0.36;;;;;;;;;
06/01/2021 00:00;0.49;;;;;;;;;
06/01/2021 01:00;0.64;;;;;;;;;
06/01/2021 02:00;0.77;;;;;;;;;
06/01/2021 03:00;0.84;;;;;;;;;
06/01/2021 04:00;0.89;;;;;;;;;
06/01/2021 05:00;0.87;;;;;;;;;
06/01/2021 06:00;0.79;;;;;;;;;
06/01/2021 07:00;0.69;;;;;;;;;
06/01/2021 08:00;0.57;;;;;;;;;
06/01/2021 09:00;0.47;;;;;;;;;
06/01/2021 10:00;0.41;;;;;;;;;
06/01/2021 11:00;0.38;;;;;;;;;
06/01/2021 12:00;0.4;;;;;;;;;
06/01/2021 13:00;0.46;;;;;;;;;
06/01/2021 14:00;0.5;;;;;;;;;
06/01/2021 15:00;0.5;;;;;;;;;
06/01/2021 16:00;0.46;;;;;;;;;
06/01/2021 17:00;0.43;;;;;;;;;
06/01/2021 18:00;0.37;;;;;;;;;
06/01/2021 19:00;0.3;;;;;;;;;
06/01/2021 20:00;0.24;;;;;;;;;
06/01/2021 21:00;0.23;;;;;;;;;
06/01/2021 22:00;0.22;;;;;;;;;
06/01/2021 23:00;0.23;;;;;;;;;
07/01/2021 00:00;0.32;;;;;;;;;
07/01/2021 01:00;0.44;;;;;;;;;
07/01/2021 02:00;0.56;;;;;;;;;
07/01/2021 03:00;0.68;;;;;;;;;
07/01/2021 04:00;0.78;;;;;;;;;
07/01/2021 05:00;0.79;;;;;;;;;
07/01/2021 06:00;0.75;;;;;;;;;
07/01/2021 07:00;0.65;;;;;;;;;
07/01/2021 08:00;0.52;;;;;;;;;
07/01/2021 09:00;0.4;;;;;;;;;
07/01/2021 10:00;0.31;;;;;;;;;
07/01/2021 11:00;0.25;;;;;;;;;
07/01/2021 12:00;0.21;;;;;;;;;
07/01/2021 13:00;0.19;;;;;;;;;
07/01/2021 14:00;0.22;;;;;;;;;
07/01/2021 15:00;0.25;;;;;;;;;
07/01/2021 16:00;0.29;;;;;;;;;
07/01/2021 17:00;0.33;;;;;;;;;
07/01/2021 18:00;0.36;;;;;;;;;
07/01/2021 19:00;0.38;;;;;;;;;
07/01/2021 20:00;0.37;;;;;;;;;
07/01/2021 21:00;0.32;;;;;;;;;
07/01/2021 22:00;0.29;;;;;;;;;
07/01/2021 23:00;0.26;;;;;;;;;
08/01/2021 00:00;0.26;;;;;;;;;
08/01/2021 01:00;0.33;;;;;;;;;
08/01/2021 02:00;0.45;;;;;;;;;
08/01/2021 03:00;0.56;;;;;;;;;
08/01/2021 04:00;0.66;;;;;;;;;
08/01/2021 05:00;0.74;;;;;;;;;
08/01/2021 06:00;0.78;;;;;;;;;
08/01/2021 07:00;0.75;;;;;;;;;
08/01/2021 08:00;0.69;;;;;;;;;
08/01/2021 09:00;0.59;;;;;;;;;
08/01/2021 10:00;0.45;;;;;;;;;
08/01/2021 11:00;0.31;;;;;;;;;
08/01/2021 12:00;0.18;;;;;;;;;
08/01/2021 13:00;0.07;;;;;;;;;
08/01/2021 14:00;0.01;;;;;;;;;
08/01/2021 15:00;0.01;;;;;;;;;
08/01/2021 16:00;0.08;;;;;;;;;
08/01/2021 17:00;0.17;;;;;;;;;
08/01/2021 18:00;0.28;;;;;;;;;
08/01/2021 19:00;0.37;;;;;;;;;
08/01/2021 20:00;0.42;;;;;;;;;
08/01/2021 21:00;0.42;;;;;;;;;
08/01/2021 22:00;0.37;;;;;;;;;
08/01/2021 23:00;0.29;;;;;;;;;
09/01/2021 00:00;0.23;;;;;;;;;
09/01/2021 01:00;0.22;;;;;;;;;
09/01/2021 02:00;0.26;;;;;;;;;
09/01/2021 03:00;0.38;;;;;;;;;
09/01/2021 04:00;0.51;;;;;;;;;
09/01/2021 05:00;0.64;;;;;;;;;
09/01/2021 06:00;0.76;;;;;;;;;
09/01/2021 07:00;0.82;;;;;;;;;
09/01/2021 08:00;0.81;;;;;;;;;
09/01/2021 09:00;0.72;;;;;;;;;
09/01/2021 10:00;0.57;;;;;;;;;
09/01/2021 11:00;0.4;;;;;;;;;
09/01/2021 12:00;0.22;;;;;;;;;
09/01/2021 13:00;0.09;;;;;;;;;
09/01/2021 14:00;-0.02;;;;;;;;;
09/01/2021 15:00;-0.05;;;;;;;;;
09/01/2021 16:00;-0.01;;;;;;;;;
09/01/2021 17:00;0.11;;;;;;;;;
09/01/2021 18:00;0.27;;;;;;;;;
09/01/2021 19:00;0.39;;;;;;;;;
09/01/2021 20:00;0.49;;;;;;;;;
09/01/2021 21:00;0.56;;;;;;;;;
09/01/2021 22:00;0.56;;;;;;;;;
09/01/2021 23:00;0.52;;;;;;;;;
10/01/2021 00:00;0.44;;;;;;;;;
10/01/2021 01:00;0.34;;;;;;;;;
10/01/2021 02:00;0.3;;;;;;;;;
10/01/2021 03:00;0.35;;;;;;;;;
10/01/2021 04:00;0.47;;;;;;;;;
10/01/2021 05:00;0.6;;;;;;;;;
10/01/2021 06:00;0.73;;;;;;;;;
10/01/2021 07:00;0.82;;;;;;;;;
10/01/2021 08:00;0.87;;;;;;;;;
10/01/2021 09:00;0.84;;;;;;;;;
10/01/2021 10:00;0.75;;;;;;;;;
10/01/2021 11:00;0.56;;;;;;;;;
10/01/2021 12:00;0.36;;;;;;;;;
10/01/2021 13:00;0.18;;;;;;;;;
10/01/2021 14:00;0.03;;;;;;;;;
10/01/2021 15:00;-0.06;;;;;;;;;
10/01/2021 16:00;-0.07;;;;;;;;;
10/01/2021 17:00;0.02;;;;;;;;;
10/01/2021 18:00;0.18;;;;;;;;;
10/01/2021 19:00;0.36;;;;;;;;;
10/01/2021 20:00;0.51;;;;;;;;;
10/01/2021 21:00;0.6;;;;;;;;;
10/01/2021 22:00;0.61;;;;;;;;;
10/01/2021 23:00;0.62;;;;;;;;;
11/01/2021 00:00;0.54;;;;;;;;;
11/01/2021 01:00;0.46;;;;;;;;;
11/01/2021 02:00;0.38;;;;;;;;;
11/01/2021 03:00;0.36;;;;;;;;;
11/01/2021 04:00;0.37;;;;;;;;;
11/01/2021 05:00;0.46;;;;;;;;;
11/01/2021 06:00;0.59;;;;;;;;;
11/01/2021 07:00;0.69;;;;;;;;;
11/01/2021 08:00;0.78;;;;;;;;;
11/01/2021 09:00;0.83;;;;;;;;;
11/01/2021 10:00;0.8;;;;;;;;;
11/01/2021 11:00;0.69;;;;;;;;;
11/01/2021 12:00;0.51;;;;;;;;;
11/01/2021 13:00;0.3;;;;;;;;;
11/01/2021 14:00;0.12;;;;;;;;;
11/01/2021 15:00;-0.03;;;;;;;;;
11/01/2021 16:00;-0.13;;;;;;;;;
11/01/2021 17:00;-0.14;;;;;;;;;
11/01/2021 18:00;-0.02;;;;;;;;;
11/01/2021 19:00;0.18;;;;;;;;;
11/01/2021 20:00;0.36;;;;;;;;;
11/01/2021 21:00;0.51;;;;;;;;;
11/01/2021 22:00;0.62;;;;;;;;;
11/01/2021 23:00;0.68;;;;;;;;;
12/01/2021 00:00;0.66;;;;;;;;;
12/01/2021 01:00;0.56;;;;;;;;;
12/01/2021 02:00;0.43;;;;;;;;;
12/01/2021 03:00;0.34;;;;;;;;;
12/01/2021 04:00;0.28;;;;;;;;;
12/01/2021 05:00;0.3;;;;;;;;;
12/01/2021 06:00;0.41;;;;;;;;;
12/01/2021 07:00;0.55;;;;;;;;;
12/01/2021 08:00;0.67;;;;;;;;;
12/01/2021 09:00;0.76;;;;;;;;;
12/01/2021 10:00;0.8;;;;;;;;;
12/01/2021 11:00;0.72;;;;;;;;;
12/01/2021 12:00;0.55;;;;;;;;;
12/01/2021 13:00;0.36;;;;;;;;;
12/01/2021 14:00;0.14;;;;;;;;;
12/01/2021 15:00;-0.07;;;;;;;;;
12/01/2021 16:00;-0.23;;;;;;;;;
12/01/2021 17:00;-0.3;;;;;;;;;
12/01/2021 18:00;-0.21;;;;;;;;;
12/01/2021 19:00;-0.01;;;;;;;;;
12/01/2021 20:00;0.21;;;;;;;;;
12/01/2021 21:00;0.4;;;;;;;;;
12/01/2021 22:00;0.55;;;;;;;;;
12/01/2021 23:00;0.66;;;;;;;;;
13/01/2021 00:00;0.7;;;;;;;;;
13/01/2021 01:00;0.66;;;;;;;;;
13/01/2021 02:00;0.52;;;;;;;;;
13/01/2021 03:00;0.4;;;;;;;;;
13/01/2021 04:00;0.32;;;;;;;;;
13/01/2021 05:00;0.3;;;;;;;;;
13/01/2021 06:00;0.38;;;;;;;;;
13/01/2021 07:00;0.54;;;;;;;;;
13/01/2021 08:00;0.69;;;;;;;;;
13/01/2021 09:00;0.8;;;;;;;;;
13/01/2021 10:00;0.87;;;;;;;;;
13/01/2021 11:00;0.86;;;;;;;;;
13/01/2021 12:00;0.71;;;;;;;;;
13/01/2021 13:00;0.51;;;;;;;;;
13/01/2021 14:00;0.27;;;;;;;;;
13/01/2021 15:00;0.04;;;;;;;;;
13/01/2021 16:00;-0.16;;;;;;;;;
13/01/2021 17:00;-0.29;;;;;;;;;
13/01/2021 18:00;-0.28;;;;;;;;;
13/01/2021 19:00;-0.14;;;;;;;;;
13/01/2021 20:00;0.09;;;;;;;;;
13/01/2021 21:00;0.31;;;;;;;;;
13/01/2021 22:00;0.49;;;;;;;;;
13/01/2021 23:00;0.63;;;;;;;;;
14/01/2021 00:00;0.72;;;;;;;;;
14/01/2021 01:00;0.72;;;;;;;;;
14/01/2021 02:00;0.63;;;;;;;;;
14/01/2021 03:00;0.49;;;;;;;;;
14/01/2021 04:00;0.38;;;;;;;;;
14/01/2021 05:00;0.35;;;;;;;;;
14/01/2021 06:00;0.4;;;;;;;;;
14/01/2021 07:00;0.52;;;;;;;;;
14/01/2021 08:00;0.67;;;;;;;;;
14/01/2021 09:00;0.79;;;;;;;;;
14/01/2021 10:00;0.86;;;;;;;;;
14/01/2021 11:00;0.87;;;;;;;;;
14/01/2021 12:00;0.77;;;;;;;;;
14/01/2021 13:00;0.6;;;;;;;;;
14/01/2021 14:00;0.4;;;;;;;;;
14/01/2021 15:00;0.2;;;;;;;;;
14/01/2021 16:00;-0.01;;;;;;;;;
14/01/2021 17:00;-0.15;;;;;;;;;
14/01/2021 18:00;-0.19;;;;;;;;;
14/01/2021 19:00;-0.12;;;;;;;;;
14/01/2021 20:00;0.07;;;;;;;;;
14/01/2021 21:00;0.28;;;;;;;;;
14/01/2021 22:00;0.47;;;;;;;;;
14/01/2021 23:00;0.63;;;;;;;;;
15/01/2021 00:00;0.72;;;;;;;;;
15/01/2021 01:00;0.75;;;;;;;;;
15/01/2021 02:00;0.72;;;;;;;;;
15/01/2021 03:00;0.61;;;;;;;;;
15/01/2021 04:00;0.47;;;;;;;;;
15/01/2021 05:00;0.35;;;;;;;;;
15/01/2021 06:00;0.28;;;;;;;;;
15/01/2021 07:00;0.3;;;;;;;;;
15/01/2021 08:00;0.41;;;;;;;;;
15/01/2021 09:00;0.55;;;;;;;;;
15/01/2021 10:00;0.7;;;;;;;;;
15/01/2021 11:00;0.78;;;;;;;;;
15/01/2021 12:00;0.77;;;;;;;;;
15/01/2021 13:00;0.68;;;;;;;;;
15/01/2021 14:00;0.49;;;;;;;;;
15/01/2021 15:00;0.29;;;;;;;;;
15/01/2021 16:00;0.09;;;;;;;;;
15/01/2021 17:00;-0.08;;;;;;;;;
15/01/2021 18:00;-0.17;;;;;;;;;
15/01/2021 19:00;-0.17;;;;;;;;;
15/01/2021 20:00;-0.06;;;;;;;;;
15/01/2021 21:00;0.11;;;;;;;;;
15/01/2021 22:00;0.3;;;;;;;;;
15/01/2021 23:00;0.45;;;;;;;;;
16/01/2021 00:00;0.57;;;;;;;;;
16/01/2021 01:00;0.64;;;;;;;;;
16/01/2021 02:00;0.62;;;;;;;;;
16/01/2021 03:00;0.51;;;;;;;;;
16/01/2021 04:00;0.37;;;;;;;;;
16/01/2021 05:00;0.26;;;;;;;;;
16/01/2021 06:00;0.19;;;;;;;;;
16/01/2021 07:00;0.17;;;;;;;;;
16/01/2021 08:00;0.26;;;;;;;;;
16/01/2021 09:00;0.4;;;;;;;;;
16/01/2021 10:00;0.54;;;;;;;;;
16/01/2021 11:00;0.64;;;;;;;;;
16/01/2021 12:00;0.67;;;;;;;;;
16/01/2021 13:00;0.6;;;;;;;;;
16/01/2021 14:00;0.43;;;;;;;;;
16/01/2021 15:00;0.22;;;;;;;;;
16/01/2021 16:00;0.01;;;;;;;;;
16/01/2021 17:00;-0.19;;;;;;;;;
16/01/2021 18:00;-0.32;;;;;;;;;
16/01/2021 19:00;-0.36;;;;;;;;;
16/01/2021 20:00;-0.28;;;;;;;;;
16/01/2021 21:00;-0.09;;;;;;;;;
16/01/2021 22:00;0.12;;;;;;;;;
16/01/2021 23:00;0.28;;;;;;;;;
17/01/2021 00:00;0.41;;;;;;;;;
17/01/2021 01:00;0.51;;;;;;;;;
17/01/2021 02:00;0.57;;;;;;;;;
17/01/2021 03:00;0.56;;;;;;;;;
17/01/2021 04:00;0.49;;;;;;;;;
17/01/2021 05:00;0.39;;;;;;;;;
17/01/2021 06:00;0.32;;;;;;;;;
17/01/2021 07:00;0.29;;;;;;;;;
17/01/2021 08:00;0.32;;;;;;;;;
17/01/2021 09:00;0.42;;;;;;;;;
17/01/2021 10:00;0.52;;;;;;;;;
17/01/2021 11:00;0.62;;;;;;;;;
17/01/2021 12:00;0.65;;;;;;;;;
17/01/2021 13:00;0.63;;;;;;;;;
17/01/2021 14:00;0.51;;;;;;;;;
17/01/2021 15:00;0.33;;;;;;;;;
17/01/2021 16:00;0.15;;;;;;;;;
17/01/2021 17:00;-0.01;;;;;;;;;
17/01/2021 18:00;-0.14;;;;;;;;;
17/01/2021 19:00;-0.2;;;;;;;;;
17/01/2021 20:00;-0.18;;;;;;;;;
17/01/2021 21:00;-0.07;;;;;;;;;
17/01/2021 22:00;0.09;;;;;;;;;
17/01/2021 23:00;0.26;;;;;;;;;
18/01/2021 00:00;0.42;;;;;;;;;
18/01/2021 01:00;0.56;;;;;;;;;
18/01/2021 02:00;0.63;;;;;;;;;
18/01/2021 03:00;0.66;;;;;;;;;
18/01/2021 04:00;0.61;;;;;;;;;
18/01/2021 05:00;0.5;;;;;;;;;
18/01/2021 06:00;0.4;;;;;;;;;
18/01/2021 07:00;0.32;;;;;;;;;
18/01/2021 08:00;0.28;;;;;;;;;
18/01/2021 09:00;0.3;;;;;;;;;
18/01/2021 10:00;0.35;;;;;;;;;
18/01/2021 11:00;0.42;;;;;;;;;
18/01/2021 12:00;0.46;;;;;;;;;
18/01/2021 13:00;0.44;;;;;;;;;
18/01/2021 14:00;0.35;;;;;;;;;
18/01/2021 15:00;0.23;;;;;;;;;
18/01/2021 16:00;0.1;;;;;;;;;
18/01/2021 17:00;-0.03;;;;;;;;;
18/01/2021 18:00;-0.15;;;;;;;;;
18/01/2021 19:00;-0.2;;;;;;;;;
18/01/2021 20:00;-0.18;;;;;;;;;
18/01/2021 21:00;-0.1;;;;;;;;;
18/01/2021 22:00;0.04;;;;;;;;;
18/01/2021 23:00;0.19;;;;;;;;;
19/01/2021 00:00;0.32;;;;;;;;;
19/01/2021 01:00;0.43;;;;;;;;;
19/01/2021 02:00;0.51;;;;;;;;;
19/01/2021 03:00;0.57;;;;;;;;;
19/01/2021 04:00;0.57;;;;;;;;;
19/01/2021 05:00;0.49;;;;;;;;;
19/01/2021 06:00;0.39;;;;;;;;;
19/01/2021 07:00;0.29;;;;;;;;;
19/01/2021 08:00;0.21;;;;;;;;;
19/01/2021 09:00;0.16;;;;;;;;;
19/01/2021 10:00;0.17;;;;;;;;;
19/01/2021 11:00;0.21;;;;;;;;;
19/01/2021 12:00;0.27;;;;;;;;;
19/01/2021 13:00;0.32;;;;;;;;;
19/01/2021 14:00;0.33;;;;;;;;;
19/01/2021 15:00;0.25;;;;;;;;;
19/01/2021 16:00;0.15;;;;;;;;;
19/01/2021 17:00;0.05;;;;;;;;;
19/01/2021 18:00;-0.04;;;;;;;;;
19/01/2021 19:00;-0.07;;;;;;;;;
19/01/2021 20:00;-0.07;;;;;;;;;
19/01/2021 21:00;-0.01;;;;;;;;;
19/01/2021 22:00;0.09;;;;;;;;;
19/01/2021 23:00;0.21;;;;;;;;;
20/01/2021 00:00;0.33;;;;;;;;;
20/01/2021 01:00;0.44;;;;;;;;;
20/01/2021 02:00;0.53;;;;;;;;;
20/01/2021 03:00;0.58;;;;;;;;;
20/01/2021 04:00;0.59;;;;;;;;;
20/01/2021 05:00;0.52;;;;;;;;;
20/01/2021 06:00;0.42;;;;;;;;;
20/01/2021 07:00;0.31;;;;;;;;;
20/01/2021 08:00;0.22;;;;;;;;;
20/01/2021 09:00;0.17;;;;;;;;;
20/01/2021 10:00;0.13;;;;;;;;;
20/01/2021 11:00;0.16;;;;;;;;;
20/01/2021 12:00;0.2;;;;;;;;;
20/01/2021 13:00;0.22;;;;;;;;;
20/01/2021 14:00;0.24;;;;;;;;;
20/01/2021 15:00;0.23;;;;;;;;;
20/01/2021 16:00;0.19;;;;;;;;;
20/01/2021 17:00;0.14;;;;;;;;;
20/01/2021 18:00;0.1;;;;;;;;;
20/01/2021 19:00;0.07;;;;;;;;;
20/01/2021 20:00;0.06;;;;;;;;;
20/01/2021 21:00;0.1;;;;;;;;;
20/01/2021 22:00;0.19;;;;;;;;;
20/01/2021 23:00;0.31;;;;;;;;;
21/01/2021 00:00;0.4;;;;;;;;;
21/01/2021 01:00;0.48;;;;;;;;;
21/01/2021 02:00;0.54;;;;;;;;;
21/01/2021 03:00;0.57;;;;;;;;;
21/01/2021 04:00;0.57;;;;;;;;;
21/01/2021 05:00;0.53;;;;;;;;;
21/01/2021 06:00;0.46;;;;;;;;;
21/01/2021 07:00;0.39;;;;;;;;;
21/01/2021 08:00;0.32;;;;;;;;;
21/01/2021 09:00;0.24;;;;;;;;;
21/01/2021 10:00;0.19;;;;;;;;;
21/01/2021 11:00;0.14;;;;;;;;;
21/01/2021 12:00;0.15;;;;;;;;;
21/01/2021 13:00;0.18;;;;;;;;;
21/01/2021 14:00;0.21;;;;;;;;;
21/01/2021 15:00;0.24;;;;;;;;;
21/01/2021 16:00;0.25;;;;;;;;;
21/01/2021 17:00;0.25;;;;;;;;;
21/01/2021 18:00;0.26;;;;;;;;;
21/01/2021 19:00;0.27;;;;;;;;;
21/01/2021 20:00;0.31;;;;;;;;;
21/01/2021 21:00;0.35;;;;;;;;;
21/01/2021 22:00;0.38;;;;;;;;;
21/01/2021 23:00;0.39;;;;;;;;;
22/01/2021 00:00;0.43;;;;;;;;;
22/01/2021 01:00;0.46;;;;;;;;;
22/01/2021 02:00;0.52;;;;;;;;;
22/01/2021 03:00;0.59;;;;;;;;;
22/01/2021 04:00;0.66;;;;;;;;;
22/01/2021 05:00;0.71;;;;;;;;;
22/01/2021 06:00;0.72;;;;;;;;;
22/01/2021 07:00;0.69;;;;;;;;;
22/01/2021 08:00;0.62;;;;;;;;;
22/01/2021 09:00;0.52;;;;;;;;;
22/01/2021 10:00;0.43;;;;;;;;;
22/01/2021 11:00;0.34;;;;;;;;;
22/01/2021 12:00;0.26;;;;;;;;;
22/01/2021 13:00;0.22;;;;;;;;;
22/01/2021 14:00;0.21;;;;;;;;;
22/01/2021 15:00;0.26;;;;;;;;;
22/01/2021 16:00;0.34;;;;;;;;;
22/01/2021 17:00;0.43;;;;;;;;;
22/01/2021 18:00;0.51;;;;;;;;;
22/01/2021 19:00;0.55;;;;;;;;;
22/01/2021 20:00;0.57;;;;;;;;;
22/01/2021 21:00;0.57;;;;;;;;;
22/01/2021 22:00;0.55;;;;;;;;;
22/01/2021 23:00;0.59;;;;;;;;;
23/01/2021 00:00;0.61;;;;;;;;;
23/01/2021 01:00;0.67;;;;;;;;;
23/01/2021 02:00;0.76;;;;;;;;;
23/01/2021 03:00;0.73;;;;;;;;;
23/01/2021 04:00;0.75;;;;;;;;;
23/01/2021 05:00;0.77;;;;;;;;;
23/01/2021 06:00;0.81;;;;;;;;;
23/01/2021 07:00;0.8;;;;;;;;;
23/01/2021 08:00;0.8;;;;;;;;;
23/01/2021 09:00;0.82;;;;;;;;;
23/01/2021 10:00;0.77;;;;;;;;;
23/01/2021 11:00;0.62;;;;;;;;;
23/01/2021 12:00;0.48;;;;;;;;;
23/01/2021 13:00;0.35;;;;;;;;;
23/01/2021 14:00;0.27;;;;;;;;;
23/01/2021 15:00;0.21;;;;;;;;;
23/01/2021 16:00;0.26;;;;;;;;;
23/01/2021 17:00;0.28;;;;;;;;;
23/01/2021 18:00;0.27;;;;;;;;;
23/01/2021 19:00;0.31;;;;;;;;;
23/01/2021 20:00;0.34;;;;;;;;;
23/01/2021 21:00;0.35;;;;;;;;;
23/01/2021 22:00;0.39;;;;;;;;;
23/01/2021 23:00;0.39;;;;;;;;;
24/01/2021 00:00;0.45;;;;;;;;;
24/01/2021 01:00;0.5;;;;;;;;;
24/01/2021 02:00;0.56;;;;;;;;;
24/01/2021 03:00;0.65;;;;;;;;;
24/01/2021 04:00;0.76;;;;;;;;;
24/01/2021 05:00;0.82;;;;;;;;;
24/01/2021 06:00;0.87;;;;;;;;;
24/01/2021 07:00;0.91;;;;;;;;;
24/01/2021 08:00;0.91;;;;;;;;;
24/01/2021 09:00;0.85;;;;;;;;;
24/01/2021 10:00;0.73;;;;;;;;;
24/01/2021 11:00;0.58;;;;;;;;;
24/01/2021 12:00;0.43;;;;;;;;;
24/01/2021 13:00;0.29;;;;;;;;;
24/01/2021 14:00;0.17;;;;;;;;;
24/01/2021 15:00;0.09;;;;;;;;;
24/01/2021 16:00;0.06;;;;;;;;;
24/01/2021 17:00;0.07;;;;;;;;;
24/01/2021 18:00;0.18;;;;;;;;;
24/01/2021 19:00;0.32;;;;;;;;;
24/01/2021 20:00;0.41;;;;;;;;;
24/01/2021 21:00;0.49;;;;;;;;;
24/01/2021 22:00;0.52;;;;;;;;;
24/01/2021 23:00;0.51;;;;;;;;;
25/01/2021 00:00;0.46;;;;;;;;;
25/01/2021 01:00;0.4;;;;;;;;;
25/01/2021 02:00;0.4;;;;;;;;;
25/01/2021 03:00;0.43;;;;;;;;;
25/01/2021 04:00;0.47;;;;;;;;;
25/01/2021 05:00;0.53;;;;;;;;;
25/01/2021 06:00;0.58;;;;;;;;;
25/01/2021 07:00;0.61;;;;;;;;;
25/01/2021 08:00;0.64;;;;;;;;;
25/01/2021 09:00;0.68;;;;;;;;;
25/01/2021 10:00;0.69;;;;;;;;;
25/01/2021 11:00;0.65;;;;;;;;;
25/01/2021 12:00;0.53;;;;;;;;;
25/01/2021 13:00;0.45;;;;;;;;;
25/01/2021 14:00;0.35;;;;;;;;;
25/01/2021 15:00;0.27;;;;;;;;;
25/01/2021 16:00;0.27;;;;;;;;;
25/01/2021 17:00;0.36;;;;;;;;;
25/01/2021 18:00;0.46;;;;;;;;;
25/01/2021 19:00;0.58;;;;;;;;;
25/01/2021 20:00;0.7;;;;;;;;;
25/01/2021 21:00;0.73;;;;;;;;;
25/01/2021 22:00;0.69;;;;;;;;;
25/01/2021 23:00;0.59;;;;;;;;;
26/01/2021 00:00;0.47;;;;;;;;;
26/01/2021 01:00;0.35;;;;;;;;;
26/01/2021 02:00;0.24;;;;;;;;;
26/01/2021 03:00;0.18;;;;;;;;;
26/01/2021 04:00;0.13;;;;;;;;;
26/01/2021 05:00;0.16;;;;;;;;;
26/01/2021 06:00;0.26;;;;;;;;;
26/01/2021 07:00;0.41;;;;;;;;;
26/01/2021 08:00;0.57;;;;;;;;;
26/01/2021 09:00;0.68;;;;;;;;;
26/01/2021 10:00;0.75;;;;;;;;;
26/01/2021 11:00;0.74;;;;;;;;;
26/01/2021 12:00;0.65;;;;;;;;;
26/01/2021 13:00;0.49;;;;;;;;;
26/01/2021 14:00;0.3;;;;;;;;;
26/01/2021 15:00;0.13;;;;;;;;;
26/01/2021 16:00;0.02;;;;;;;;;
26/01/2021 17:00;-0.02;;;;;;;;;
26/01/2021 18:00;0.02;;;;;;;;;
26/01/2021 19:00;0.15;;;;;;;;;
26/01/2021 20:00;0.3;;;;;;;;;
26/01/2021 21:00;0.42;;;;;;;;;
26/01/2021 22:00;0.48;;;;;;;;;
26/01/2021 23:00;0.48;;;;;;;;;
27/01/2021 00:00;0.39;;;;;;;;;
27/01/2021 01:00;0.23;;;;;;;;;
27/01/2021 02:00;0.07;;;;;;;;;
27/01/2021 03:00;-0.01;;;;;;;;;
27/01/2021 04:00;0.01;;;;;;;;;
27/01/2021 05:00;0.12;;;;;;;;;
27/01/2021 06:00;0.32;;;;;;;;;
27/01/2021 07:00;0.53;;;;;;;;;
27/01/2021 08:00;0.71;;;;;;;;;
27/01/2021 09:00;0.84;;;;;;;;;
27/01/2021 10:00;0.92;;;;;;;;;
27/01/2021 11:00;0.88;;;;;;;;;
27/01/2021 12:00;0.73;;;;;;;;;
27/01/2021 13:00;0.51;;;;;;;;;
27/01/2021 14:00;0.29;;;;;;;;;
27/01/2021 15:00;0.07;;;;;;;;;
27/01/2021 16:00;-0.1;;;;;;;;;
27/01/2021 17:00;-0.18;;;;;;;;;
27/01/2021 18:00;-0.13;;;;;;;;;
27/01/2021 19:00;0.04;;;;;;;;;
27/01/2021 20:00;0.23;;;;;;;;;
27/01/2021 21:00;0.39;;;;;;;;;
27/01/2021 22:00;0.48;;;;;;;;;
27/01/2021 23:00;0.49;;;;;;;;;
28/01/2021 00:00;0.43;;;;;;;;;
28/01/2021 01:00;0.34;;;;;;;;;
28/01/2021 02:00;0.24;;;;;;;;;
28/01/2021 03:00;0.2;;;;;;;;;
28/01/2021 04:00;0.25;;;;;;;;;
28/01/2021 05:00;0.39;;;;;;;;;
28/01/2021 06:00;0.57;;;;;;;;;
28/01/2021 07:00;0.72;;;;;;;;;
28/01/2021 08:00;0.84;;;;;;;;;
28/01/2021 09:00;0.92;;;;;;;;;
28/01/2021 10:00;0.94;;;;;;;;;
28/01/2021 11:00;0.85;;;;;;;;;
28/01/2021 12:00;0.7;;;;;;;;;
28/01/2021 13:00;0.5;;;;;;;;;
28/01/2021 14:00;0.28;;;;;;;;;
28/01/2021 15:00;0.08;;;;;;;;;
28/01/2021 16:00;-0.1;;;;;;;;;
28/01/2021 17:00;-0.21;;;;;;;;;
28/01/2021 18:00;-0.19;;;;;;;;;
28/01/2021 19:00;-0.06;;;;;;;;;
28/01/2021 20:00;0.14;;;;;;;;;
28/01/2021 21:00;0.34;;;;;;;;;
28/01/2021 22:00;0.51;;;;;;;;;
28/01/2021 23:00;0.62;;;;;;;;;
29/01/2021 00:00;0.7;;;;;;;;;
29/01/2021 01:00;0.71;;;;;;;;;
29/01/2021 02:00;0.67;;;;;;;;;
29/01/2021 03:00;0.59;;;;;;;;;
29/01/2021 04:00;0.5;;;;;;;;;
29/01/2021 05:00;0.5;;;;;;;;;
29/01/2021 06:00;0.54;;;;;;;;;
29/01/2021 07:00;0.64;;;;;;;;;
29/01/2021 08:00;0.76;;;;;;;;;
29/01/2021 09:00;0.83;;;;;;;;;
29/01/2021 10:00;0.86;;;;;;;;;
29/01/2021 11:00;0.87;;;;;;;;;
29/01/2021 12:00;0.76;;;;;;;;;
29/01/2021 13:00;0.61;;;;;;;;;
29/01/2021 14:00;0.41;;;;;;;;;
29/01/2021 15:00;0.2;;;;;;;;;
29/01/2021 16:00;0.03;;;;;;;;;
29/01/2021 17:00;-0.1;;;;;;;;;
29/01/2021 18:00;-0.14;;;;;;;;;
29/01/2021 19:00;-0.02;;;;;;;;;
29/01/2021 20:00;0.19;;;;;;;;;
29/01/2021 21:00;0.43;;;;;;;;;
29/01/2021 22:00;0.63;;;;;;;;;
29/01/2021 23:00;0.79;;;;;;;;;
30/01/2021 00:00;0.88;;;;;;;;;
30/01/2021 01:00;0.89;;;;;;;;;
30/01/2021 02:00;0.78;;;;;;;;;
30/01/2021 03:00;0.62;;;;;;;;;
30/01/2021 04:00;0.46;;;;;;;;;
30/01/2021 05:00;0.33;;;;;;;;;
30/01/2021 06:00;0.23;;;;;;;;;
30/01/2021 07:00;0.23;;;;;;;;;
30/01/2021 08:00;0.31;;;;;;;;;
30/01/2021 09:00;0.46;;;;;;;;;
30/01/2021 10:00;0.58;;;;;;;;;
30/01/2021 11:00;0.66;;;;;;;;;
30/01/2021 12:00;0.67;;;;;;;;;
30/01/2021 13:00;0.61;;;;;;;;;
30/01/2021 14:00;0.44;;;;;;;;;
30/01/2021 15:00;0.29;;;;;;;;;
30/01/2021 16:00;0.11;;;;;;;;;
30/01/2021 17:00;-0.03;;;;;;;;;
30/01/2021 18:00;-0.07;;;;;;;;;
30/01/2021 19:00;0.03;;;;;;;;;
30/01/2021 20:00;0.24;;;;;;;;;
30/01/2021 21:00;0.47;;;;;;;;;
30/01/2021 22:00;0.67;;;;;;;;;
30/01/2021 23:00;0.71;;;;;;;;;
31/01/2021 00:00;0.66;;;;;;;;;
31/01/2021 01:00;0.68;;;;;;;;;
31/01/2021 02:00;0.68;;;;;;;;;
31/01/2021 03:00;0.67;;;;;;;;;
31/01/2021 04:00;0.59;;;;;;;;;
31/01/2021 05:00;0.46;;;;;;;;;
31/01/2021 06:00;0.36;;;;;;;;;
31/01/2021 07:00;0.43;;;;;;;;;
31/01/2021 08:00;0.54;;;;;;;;;
31/01/2021 09:00;0.68;;;;;;;;;
31/01/2021 10:00;0.84;;;;;;;;;
31/01/2021 11:00;0.93;;;;;;;;;
31/01/2021 12:00;0.99;;;;;;;;;
31/01/2021 13:00;0.98;;;;;;;;;
31/01/2021 14:00;0.86;;;;;;;;;
31/01/2021 15:00;0.7;;;;;;;;;
31/01/2021 16:00;0.5;;;;;;;;;
31/01/2021 17:00;0.35;;;;;;;;;
31/01/2021 18:00;0.22;;;;;;;;;
31/01/2021 19:00;0.13;;;;;;;;;
31/01/2021 20:00;0.16;;;;;;;;;
31/01/2021 21:00;0.31;;;;;;;;;
31/01/2021 22:00;0.49;;;;;;;;;
31/01/2021 23:00;0.65;;;;;;;;;
01/02/2021 00:00;0.76;;;;;;;;;
01/02/2021 01:00;0.8;;;;;;;;;
01/02/2021 02:00;0.77;;;;;;;;;
01/02/2021 03:00;0.66;;;;;;;;;
01/02/2021 04:00;0.53;;;;;;;;;